User: anonymous   Login
Location: Unspecified
(0.0000°N, 0.0000°E)
Time: 15:55:35
(UTC+00:00)
Language:

STARS - Orbit

View from above orbital plane
View from above orbital plane
View from above satellite
View from above satellite

Ground track
Ground track

The orbit data is extracted from the following two-line orbital elements,

1 33498U 09002G   21267.89067144  .00000430  00000-0  64939-4 0  9997
2 33498  98.1979 150.0178 0011687  32.3640 327.8285 14.79422766682161
Epoch (UTC): 24 September 2021 21:22:34
Eccentricity: 0.0011687
inclination: 98.1979°
perigee height: 623 km
apogee height: 639 km
right ascension of ascending node: 150.0178°
argument of perigee: 32.3640°
revolutions per day: 14.79422766
mean anomaly at epoch: 327.8285°
orbit number at epoch: 68216

The dashed part of the orbit path shows where the satellite is in the earth's shadow,  

DLR